This is the latest recevied weather packets stored in our database for station/object PA3FNT-13. If no packets are shown the sender has not sent any weather packets the latest 10 day(s).
| Time | Temp. | Humidity | Pressure | Rain* | Wind** | Luminosity | Snow |
|---|---|---|---|---|---|---|---|
| 1777428728 | 25° C | 21% | 1028.5 hPa | - | - | - | - |
| 1777427828 | 25° C | 21% | 1028.6 hPa | - | - | - | - |
| 1777426928 | 25° C | 21% | 1028.7 hPa | - | - | - | - |
| 1777426027 | 25° C | 21% | 1028.6 hPa | - | - | - | - |
| 1777425127 | 25° C | 21% | 1028.8 hPa | - | - | - | - |
| 1777424227 | 25.56° C | 20% | 1028.6 hPa | - | - | - | - |
| 1777423381 | 25.56° C | 21% | 1028.6 hPa | - | - | - | - |
| 1777423326 | 25.56° C | 21% | 1028.6 hPa | - | - | - | - |
| 1777422426 | 25° C | 21% | 1028.5 hPa | - | - | - | - |
| 1777421526 | 25° C | 21% | 1028.5 hPa | - | - | - | - |
| 1777420625 | 25.56° C | 21% | 1028.4 hPa | - | - | - | - |
| 1777419725 | 25.56° C | 22% | 1028.2 hPa | - | - | - | - |
| 1777418825 | 25.56° C | 21% | 1028.4 hPa | - | - | - | - |
| 1777417962 | 25.56° C | 22% | 1028.2 hPa | - | - | - | - |
| 1777417925 | 25.56° C | 22% | 1028.2 hPa | - | - | - | - |
| 1777417025 | 25.56° C | 22% | 1028.1 hPa | - | - | - | - |
| 1777416124 | 25.56° C | 22% | 1027.9 hPa | - | - | - | - |
| 1777415224 | 26.11° C | 23% | 1027.6 hPa | - | - | - | - |
| 1777414324 | 26.11° C | 23% | 1027.6 hPa | - | - | - | - |
| 1777413424 | 26.11° C | 23% | 1027.3 hPa | - | - | - | - |
| 1777412524 | 26.11° C | 23% | 1027.1 hPa | - | - | - | - |
| 1777411623 | 26.67° C | 22% | 1027 hPa | - | - | - | - |
| 1777410723 | 26.11° C | 23% | 1026.8 hPa | - | - | - | - |
| 1777409823 | 26.11° C | 24% | 1026.7 hPa | - | - | - | - |
* Rain since midnight (hover to see other rain measurements)
** Current wind speed in m/s (hover to see current wind gust speed)